Regional Weather Roundup
Issued by NWS Midland/Odessa, TX

Home | Current Version | Previous Version | Text Only | Print | Product List | Glossary On
Versions: 1 2 3 4 5 6 7 8 9 10 11 12 13 14 15 16 17 18 19 20 21 22 23 24 25 26 27 28 29 30 31 32 33 34 35 36 37 38 39 40 41 42 43 44 45 46 47 48 49 50
000
ASUS44 KMAF 150310
RWRMAF
MIDLAND AREA WEATHER ROUNDUP
NATIONAL WEATHER SERVICE MIDLAND TX
900 PM CST THU DEC 14 2017

...IN SOUTHWEST TEXAS AND SOUTHEAST NEW MEXICO...

CITY           SKY/WX    TMP DP  RH WIND       PRES   REMARKS
ALPINE         CLOUDY    38  28  67 N6        30.25R WCI  34
ANDREWS        FAIR      34  22  60 N7        30.24R WCI  28
ARTESIA        CLEAR     36  16  44 N9        30.25R WCI  29
BIG SPRING     CLEAR     41  23  48 NE8       30.26R WCI  36
CARLSBAD       CLEAR     39  22  50 NE3       30.23R
DRYDEN           N/A     51  31  46 N9        30.14R
FORT STOCKTON  NOT AVBL
GUAD PASS      CLEAR     38  20  48 NE30      30.19R WCI  26
HOBBS          NOT AVBL
LAMESA         MOCLDY    36  19  51 N9        30.25R WCI  29
MARFA          NOT AVBL
MIDLAND AIRPK  CLEAR     42  24  49 NE7       30.24R WCI  37
MIDLAND INTL   CLEAR     39  23  52 NE6       30.22R WCI  35
ODESSA         CLEAR     39  23  52 NE8       30.23R WCI  33
PECOS          CLEAR     44  27  51 NE8       30.23R WCI  39
PRESIDIO       MOCLDY    53  29  39 N17G24    30.11R
SEMINOLE       CLEAR     38  20  48 NE6       30.26R WCI  34
SNYDER         CLEAR     38  21  51 N7        30.24R WCI  32
WINK           CLEAR     35  24  64 NE8       30.22R WCI  29
$$
...OTHER STATIONS IN TEXAS...

CITY           SKY/WX    TMP DP  RH WIND       PRES   REMARKS
ABILENE        CLEAR     40  25  55 N6        30.22R WCI  36
AMARILLO       CLOUDY    40  25  55 N15       30.27R WCI  32
AUSTIN         CLOUDY    57  32  38 N17       30.11R
BROWNSVILLE    CLOUDY    65  61  87 CALM      29.97F
CORPUS CHRISTI CLOUDY    60  54  80 NE9       30.02R
DALLAS FTW     PTCLDY    48  28  46 N12       30.16R
DEL RIO        MOCLDY    55  40  56 N6        30.11R
EL PASO        MOCLDY    48  20  32 E7        30.15R
HOUSTON INT    CLOUDY    54  45  71 N6        30.07R
LUBBOCK        PTCLDY    33  24  69 N9        30.25R WCI  25
SAN ANGELO     PTCLDY    42  25  50 N8        30.20R WCI  37
SAN ANTONIO    CLOUDY    58  32  37 N14G22    30.08R
WACO           CLOUDY    48  27  44 N8        30.17R
WICHITA FALLS  MOCLDY    43  33  68 NW16G23   30.16R WCI  35
$$
...OTHER LOCATIONS IN NEW MEXICO...

CITY           SKY/WX    TMP DP  RH WIND       PRES   REMARKS
ALAMOGORDO     CLEAR     41  16  36 N6        30.18R WCI  37
ALBUQUERQUE    PTCLDY    37  15  40 E12       30.22R WCI  29
CANNON AFB     MOCLDY    38  23  55 NE9       30.28R WCI  31
CLOVIS         NOT AVBL
HOLLOMAN AFB   CLEAR     40  17  39 W10       30.19R WCI  33
ROSWELL        CLEAR     38  20  48 NE5       30.25R WCI  34
RUIDOSO        PTCLDY    28  14  54 E3        30.27R
SANTA FE       CLEAR     29  16  58 E3        30.23R
TRUTH OR CONSE CLEAR     44  16  32 NE13      30.19R WCI  38
TUCUMCARI      CLOUDY    37  25  61 NE5       30.27R WCI  33
$$




USA.gov is the U.S. government's official web portal to all federal, state and local government web resources and services.